Weather History for Casper, WY

Change the Weather History Date:

Thursday, January 3, 2013

  Actual Average Record
Temperature  
Mean Temperature 14 °F 24 °F  
Max Temperature 25 °F 35 °F 53 °F (1981)
Min Temperature 2 °F 14 °F -25 °F (1959)
Degree Days  
Heating Degree Days 51 41  
Month to date heating degree days 155 123  
Since 1 July heating degree days 2878 3252  
Cooling Degree Days 0 0  
Month to date cooling degree days 0 0  
Year to date cooling degree days 0 0  
Moisture  
Dew Point 1 °F    
Average Humidity 58    
Maximum Humidity 72    
Minimum Humidity 43    
Precipitation  
Precipitation 0.00 in 0.02 in 0.39 in (1944)
Month to date precipitation T 0.05  
Year to date precipitation T 0.05  
Snow  
Snow 0.00 in 0.30 in - ()
Month to date snowfall 0.1 1.0  
Since 1 July snowfall 18.8 31.5  
Snow Depth 1.00 in    
Sea Level Pressure  
Sea Level Pressure 30.43 in    
Wind  
Wind Speed 20 mph (SW)    
Max Wind Speed 31 mph    
Max Gust Speed 39 mph    
Visibility 10 miles    
Events      
T = Trace of Precipitation, MM = Missing Value Source: NWS Daily Summary

Daily Weather History Graph

Daily Weather History Graph

Search for Another Location

Airport:

Trip Planner

Search our weather history database for the weather conditions in past years. The results will help you decide how hot, cold, wet, or windy it might be!

Date:

Astronomy

Jan. 03, 2013 Rise Set
Actual Time 7:36 AM MST 4:44 PM MST
Civil Twilight 7:04 AM MST 5:16 PM MST
Nautical Twilight 6:29 AM MST 5:52 PM MST
Astronomical Twilight 5:55 AM MST 6:26 PM MST
Moon 11:33 PM MST (1/3) 10:40 AM MST (1/3)
Length of Visible Light 10h 11m
Length of Day
9h 07m
Waning Gibbous, 65% of the Moon is Illuminated
Jan 3
Waning Gibbous
Jan 4
Last Quarter
Jan 11
New
Jan 18
First Quarter
Jan 26
Full

Hourly Weather History & Observations

Time (MST) Temp. Windchill Dew Point Humidity Pressure Visibility Wind Dir Wind Speed Gust Speed Precip Events Conditions
12:53 AM 3.9 °F -10.4 °F -4.0 °F 70% 30.45 in 10.0 mi SW 9.2 mph - N/A   Clear
1:53 AM 3.0 °F -11.5 °F -5.1 °F 69% 30.48 in 10.0 mi WSW 9.2 mph - N/A   Clear
2:53 AM 3.0 °F -10.5 °F -5.1 °F 69% 30.49 in 10.0 mi WSW 8.1 mph - N/A   Clear
3:53 AM 7.0 °F -9.8 °F -4.0 °F 61% 30.47 in 10.0 mi WSW 13.8 mph - N/A   Clear
4:53 AM 3.9 °F -12.2 °F -5.1 °F 66% 30.51 in 10.0 mi West 11.5 mph - N/A   Clear
5:53 AM 10.0 °F -6.5 °F -2.9 °F 56% 30.49 in 10.0 mi SW 15.0 mph - N/A   Clear
6:53 AM 12.9 °F -3.9 °F -2.0 °F 51% 30.49 in 10.0 mi SW 17.3 mph - N/A   Clear
7:53 AM 14.0 °F -2.5 °F -2.0 °F 49% 30.50 in 10.0 mi SW 17.3 mph 26.5 mph N/A   Clear
8:53 AM 14.0 °F -2.0 °F -0.9 °F 52% 30.53 in 10.0 mi SW 16.1 mph 23.0 mph N/A   Clear
9:53 AM 18.0 °F -0.5 °F 1.0 °F 48% 30.50 in 10.0 mi SSW 26.5 mph 34.5 mph N/A   Clear
10:53 AM 19.0 °F 0.6 °F 3.0 °F 50% 30.48 in 10.0 mi SW 27.6 mph 34.5 mph N/A   Clear
11:53 AM 21.0 °F 3.9 °F 5.0 °F 50% 30.42 in 10.0 mi SSW 25.3 mph 33.4 mph N/A   Clear
12:53 PM 23.0 °F 6.0 °F 6.1 °F 48% 30.40 in 10.0 mi SSW 27.6 mph 39.1 mph N/A   Clear
1:53 PM 24.1 °F 6.9 °F 7.0 °F 48% 30.39 in 10.0 mi SSW 29.9 mph 34.5 mph N/A   Clear
2:53 PM 25.0 °F 9.2 °F 8.1 °F 49% 30.39 in 10.0 mi SSW 25.3 mph 32.2 mph N/A   Clear
3:53 PM 24.1 °F 8.0 °F 7.0 °F 48% 30.37 in 10.0 mi SSW 25.3 mph 33.4 mph N/A   Clear
4:53 PM 21.9 °F 6.2 °F 5.0 °F 48% 30.40 in 10.0 mi SSW 21.9 mph - N/A   Clear
5:53 PM 21.9 °F 5.5 °F 3.9 °F 46% 30.39 in 10.0 mi SSW 24.2 mph 32.2 mph N/A   Clear
6:53 PM 19.9 °F 3.9 °F 3.0 °F 48% 30.38 in 10.0 mi SW 20.7 mph 27.6 mph N/A   Clear
7:53 PM 19.9 °F 3.9 °F 1.9 °F 46% 30.38 in 10.0 mi SW 20.7 mph 27.6 mph N/A   Clear
8:53 PM 19.9 °F 3.9 °F 1.0 °F 44% 30.38 in 10.0 mi SW 20.7 mph 26.5 mph N/A   Clear
9:53 PM 19.0 °F 3.6 °F -0.0 °F 43% 30.36 in 10.0 mi SW 18.4 mph 25.3 mph N/A   Clear
10:53 PM 19.0 °F 2.4 °F -0.0 °F 43% 30.37 in 10.0 mi SW 21.9 mph 26.5 mph N/A   Clear
11:53 PM 17.1 °F 0.6 °F -0.0 °F 47% 30.36 in 10.0 mi SW 19.6 mph 26.5 mph N/A   Clear